Location: Bush Observatory
(40.2653°N, 94.3194°W)
Time: 10:39:41
(UTC-05:00)

JAS-2 - Visible Passes

Search period start: 06 July 2015 00:00
Search period end: 16 July 2015 00:00
Orbit: 800 x 1322 km, 98.5° (Epoch: 05 July)

Date Brightness Start Highest point End Pass type
(mag) Time Alt. Az. Time Alt. Az. Time Alt. Az.
06 Jul 10.7 04:19:35 10° NNE 04:26:07 50° E 04:33:22 10° S visible
07 Jul 11.9 03:25:57 10° NE 03:30:40 20° E 03:36:01 10° SE visible
07 Jul 10.0 05:09:29 10° N 05:16:15 76° WNW 05:23:46 10° SSW visible
08 Jul 10.8 04:14:38 10° NNE 04:21:14 47° E 04:28:30 10° S visible
09 Jul 12.0 03:21:09 10° NE 03:25:44 19° E 03:30:57 10° SE visible
09 Jul 10.0 05:04:29 10° N 05:11:24 80° WNW 05:19:02 10° SSW visible
10 Jul 10.9 04:09:43 10° NNE 04:16:21 45° E 04:23:38 10° S visible
11 Jul 12.1 03:16:23 10° NE 03:20:48 18° E 03:25:51 10° SE visible
11 Jul 10.0 04:59:30 10° NNE 05:06:33 85° WNW 05:14:16 10° SSW visible
12 Jul 11.0 04:04:48 10° NNE 04:11:29 42° E 04:18:45 10° SSE visible
13 Jul 12.2 03:11:38 10° NE 03:15:53 17° E 03:20:44 10° SE visible
13 Jul 10.1 04:54:32 10° NNE 05:01:43 89° WNW 05:09:30 10° SSW visible
14 Jul 11.1 03:59:55 10° NNE 04:06:36 40° E 04:13:50 10° SSE visible
15 Jul 12.2 03:06:56 10° NE 03:10:57 16° E 03:15:35 10° SE visible
15 Jul 10.1 04:49:35 10° NNE 04:56:52 86° ESE 05:04:43 10° SSW visible
